Northeast Philadelphia, PA

4:19 PM EDT on October 16, 2019 (GMT -0400)
Northeast Philadelphia

Weather History for KPNE - August, 2019

Change the Weather History Date:

Thursday, August 8, 2019

  Actual Average Record
Temperature  
Mean Temperature 80 °F -  
Max Temperature 90 °F 83 °F 99 °F (2001)
Min Temperature 70 °F 65 °F 55 °F (1997)
Cooling Degree Days 14    
Growing Degree Days 30 (Base 50)    
Moisture  
Dew Point 67 °F    
Average Humidity 70    
Maximum Humidity 90    
Minimum Humidity 45    
Precipitation  
Precipitation 0.00 in - - ()
Sea Level Pressure  
Sea Level Pressure 29.77 in    
Wind  
Wind Speed 5 mph (WSW)    
Max Wind Speed 14 mph    
Max Gust Speed 22 mph    
Visibility 8 miles    
Events      
Averages and records for this station are not official NWS values.
T = Trace of Precipitation, MM = Missing Value Source: NWS Daily Summary

Daily Weather History Graph

Daily Weather History Graph

Search for Another Location

Airport or City:

Astronomy

Aug. 08, 2019 Rise Set
Actual Time 6:04 AM EDT 8:06 PM EDT
Civil Twilight 5:34 AM EDT 8:35 PM EDT
Nautical Twilight 4:58 AM EDT 9:11 PM EDT
Astronomical Twilight 4:19 AM EDT 9:51 PM EDT
Moon 2:39 PM EDT (8/8) 12:25 AM EDT (8/8)
Length of Visible Light 15h 00m
Length of Day
14h 01m
First Quarter, 60% of the Moon is Illuminated
Aug 8
First Quarter
Aug 15
Full
Aug 23
Last Quarter
Aug 30
New
Sep 5
First Quarter

Hourly Weather History & Observations

Time (EDT) Temp. Heat Index Dew Point Humidity Pressure Visibility Wind Dir Wind Speed Gust Speed Precip Events Conditions
12:03 AM 72.0 °F - 68.0 °F 87% 29.80 in 8.0 mi WNW 5.8 mph - N/A   Overcast
12:54 AM 72.0 °F - 66.9 °F 84% 29.81 in 9.0 mi SW 4.6 mph - N/A   Overcast
1:54 AM 72.0 °F - 66.9 °F 84% 29.80 in 9.0 mi WNW 5.8 mph - N/A   Mostly Cloudy
2:29 AM 71.1 °F - 66.9 °F 87% 29.79 in 6.0 mi NW 3.5 mph - N/A   Scattered Clouds
2:54 AM 71.1 °F - 66.9 °F 87% 29.78 in 6.0 mi WSW 3.5 mph - N/A   Mostly Cloudy
3:13 AM 70.0 °F - 66.9 °F 90% 29.78 in 5.0 mi Calm Calm - N/A   Mostly Cloudy
3:54 AM 72.0 °F - 66.9 °F 84% 29.77 in 6.0 mi Calm Calm - N/A   Haze
4:54 AM 72.0 °F - 68.0 °F 87% 29.76 in 6.0 mi West 4.6 mph - N/A   Overcast
5:21 AM 72.0 °F - 66.9 °F 84% 29.76 in 6.0 mi WSW 3.5 mph - N/A   Haze
5:54 AM 72.0 °F - 66.9 °F 84% 29.77 in 5.0 mi Calm Calm - N/A   Haze
6:54 AM 73.0 °F - 66.9 °F 81% 29.78 in 5.0 mi Calm Calm - N/A   Haze
7:30 AM 73.0 °F - 68.0 °F 84% 29.79 in 6.0 mi West 3.5 mph - N/A   Haze
7:54 AM 73.9 °F - 68.0 °F 82% 29.79 in 6.0 mi SW 3.5 mph - N/A   Haze
8:42 AM 73.9 °F - 68.0 °F 82% 29.79 in 5.0 mi SSW 3.5 mph - N/A   Haze
8:51 AM 73.4 °F - 69.8 °F 88% 29.79 in 4.0 mi South 4.6 mph - N/A   Overcast
8:54 AM 73.9 °F - 69.1 °F 85% 29.79 in 4.0 mi Variable 3.5 mph - N/A   Haze
9:54 AM 75.9 °F - 66.9 °F 74% 29.78 in 9.0 mi Variable 3.5 mph - N/A   Overcast
10:31 AM 79.0 °F - 69.1 °F 72% 29.79 in 10.0 mi WSW 5.8 mph - N/A   Mostly Cloudy
10:54 AM 80.1 °F 82.3 °F 66.9 °F 64% 29.78 in 10.0 mi Variable 4.6 mph - N/A   Mostly Cloudy
11:01 AM 81.0 °F 83.3 °F 66.9 °F 62% 29.79 in 10.0 mi WSW 4.6 mph - N/A   Scattered Clouds
11:54 AM 82.9 °F 85.4 °F 66.9 °F 58% 29.77 in 10.0 mi SW 4.6 mph - N/A   Clear
12:54 PM 86.0 °F 88.8 °F 66.9 °F 53% 29.76 in 10.0 mi West 12.7 mph - N/A   Scattered Clouds
1:54 PM 87.1 °F 89.2 °F 66.0 °F 49% 29.75 in 10.0 mi West 11.5 mph - N/A   Scattered Clouds
2:54 PM 88.0 °F 90.3 °F 66.0 °F 48% 29.73 in 10.0 mi WSW 10.4 mph - N/A   Partly Cloudy
3:54 PM 89.1 °F 91.0 °F 64.9 °F 45% 29.71 in 10.0 mi WSW 13.8 mph - N/A   Partly Cloudy
4:54 PM 87.1 °F 89.2 °F 66.0 °F 49% 29.71 in 10.0 mi West 12.7 mph 21.9 mph N/A   Partly Cloudy
5:54 PM 87.1 °F 89.2 °F 66.0 °F 49% 29.72 in 10.0 mi West 6.9 mph - N/A   Clear
6:54 PM 84.9 °F 87.1 °F 66.0 °F 53% 29.73 in 10.0 mi West 6.9 mph - N/A   Clear
7:54 PM 84.9 °F 85.9 °F 63.0 °F 48% 29.74 in 10.0 mi SW 6.9 mph - N/A   Partly Cloudy
8:54 PM 81.0 °F 82.5 °F 64.0 °F 56% 29.75 in 10.0 mi West 9.2 mph - N/A   Clear
9:54 PM 79.0 °F - 63.0 °F 58% 29.75 in 10.0 mi West 6.9 mph - N/A   Scattered Clouds
10:54 PM 77.0 °F - 64.0 °F 64% 29.74 in 10.0 mi WSW 3.5 mph - N/A   Clear
11:54 PM 75.9 °F - 63.0 °F 64% 29.74 in 10.0 mi WSW 5.8 mph - N/A   Clear